Year,Month,Day,Hour,Minute,Value (Times are PST for temperature in C)
2017,07,15,00,00,19.00
2017,07,15,00,01,19.00
2017,07,15,00,02,18.90
2017,07,15,00,03,18.90
2017,07,15,00,04,18.80
2017,07,15,00,05,18.80
2017,07,15,00,06,18.80
2017,07,15,00,07,18.80
2017,07,15,00,08,18.80
2017,07,15,00,09,18.80
2017,07,15,00,10,18.80
2017,07,15,00,11,18.80
2017,07,15,00,12,18.70
2017,07,15,00,13,18.70
2017,07,15,00,14,18.70
2017,07,15,00,15,18.70
2017,07,15,00,16,18.70
2017,07,15,00,17,18.60
2017,07,15,00,18,18.60
2017,07,15,00,19,18.60
2017,07,15,00,20,18.60
2017,07,15,00,21,18.60
2017,07,15,00,22,18.60
2017,07,15,00,23,18.60
2017,07,15,00,24,18.60
2017,07,15,00,25,18.60
2017,07,15,00,26,18.70
2017,07,15,00,27,18.70
2017,07,15,00,28,18.70
2017,07,15,00,29,18.80
2017,07,15,00,30,18.80
2017,07,15,00,31,18.80
2017,07,15,00,32,18.80
2017,07,15,00,33,18.80
2017,07,15,00,34,18.80
2017,07,15,00,35,18.80
2017,07,15,00,36,18.90
2017,07,15,00,37,18.90
2017,07,15,00,38,19.00
2017,07,15,00,39,19.00
2017,07,15,00,40,19.10
2017,07,15,00,41,19.10
2017,07,15,00,42,19.20
2017,07,15,00,43,19.20
2017,07,15,00,44,19.20
2017,07,15,00,45,19.20
2017,07,15,00,46,19.30
2017,07,15,00,47,19.30
2017,07,15,00,48,19.30
2017,07,15,00,49,19.40
2017,07,15,00,50,19.40
2017,07,15,00,51,19.40
2017,07,15,00,52,19.40
2017,07,15,00,53,19.40
2017,07,15,00,54,19.40
2017,07,15,00,55,19.40
2017,07,15,00,56,19.40
2017,07,15,00,57,19.30
2017,07,15,00,58,19.30
2017,07,15,00,59,19.30
2017,07,15,01,00,19.30
2017,07,15,01,01,19.30
2017,07,15,01,02,19.30
2017,07,15,01,03,19.30
2017,07,15,01,04,19.20
2017,07,15,01,05,19.20
2017,07,15,01,06,19.20
2017,07,15,01,07,19.20
2017,07,15,01,08,19.20
2017,07,15,01,09,19.20
2017,07,15,01,10,19.20
2017,07,15,01,11,19.20
2017,07,15,01,12,19.20
2017,07,15,01,13,19.20
2017,07,15,01,14,19.20
2017,07,15,01,15,19.20
2017,07,15,01,16,19.10
2017,07,15,01,17,19.10
2017,07,15,01,18,19.10
2017,07,15,01,19,19.20
2017,07,15,01,20,19.20
2017,07,15,01,21,19.20
2017,07,15,01,22,19.20
2017,07,15,01,23,19.20
2017,07,15,01,24,19.10
2017,07,15,01,25,19.10
2017,07,15,01,26,19.10
2017,07,15,01,27,19.20
2017,07,15,01,28,19.20
2017,07,15,01,29,19.20
2017,07,15,01,30,19.20
2017,07,15,01,31,19.20
2017,07,15,01,32,19.20
2017,07,15,01,33,19.10
2017,07,15,01,34,19.10
2017,07,15,01,35,19.20
2017,07,15,01,36,19.20
2017,07,15,01,37,19.10
2017,07,15,01,38,19.20
2017,07,15,01,39,19.20
2017,07,15,01,40,19.10
2017,07,15,01,41,19.10
2017,07,15,01,42,19.10
2017,07,15,01,43,19.10
2017,07,15,01,44,19.10
2017,07,15,01,45,19.10
2017,07,15,01,46,19.10
2017,07,15,01,47,19.00
2017,07,15,01,48,19.00
2017,07,15,01,49,19.00
2017,07,15,01,50,19.00
2017,07,15,01,51,19.00
2017,07,15,01,52,18.90
2017,07,15,01,53,18.90
2017,07,15,01,54,18.90
2017,07,15,01,55,18.90
2017,07,15,01,56,18.90
2017,07,15,01,57,18.80
2017,07,15,01,58,18.80
2017,07,15,01,59,18.80
2017,07,15,02,00,18.80
2017,07,15,02,01,18.80
2017,07,15,02,02,18.80
2017,07,15,02,03,18.80
2017,07,15,02,04,18.70
2017,07,15,02,05,18.70
2017,07,15,02,06,18.70
2017,07,15,02,07,18.70
2017,07,15,02,08,18.70
2017,07,15,02,09,18.70
2017,07,15,02,10,18.70
2017,07,15,02,11,18.70
2017,07,15,02,12,18.70
2017,07,15,02,13,18.70
2017,07,15,02,14,18.60
2017,07,15,02,15,18.60
2017,07,15,02,16,18.60
2017,07,15,02,17,18.60
2017,07,15,02,18,18.60
2017,07,15,02,19,18.60
2017,07,15,02,20,18.60
2017,07,15,02,21,18.60
2017,07,15,02,22,18.60
2017,07,15,02,23,18.60
2017,07,15,02,24,18.60
2017,07,15,02,25,18.60
2017,07,15,02,26,18.50
2017,07,15,02,27,18.50
2017,07,15,02,28,18.60
2017,07,15,02,29,18.60
2017,07,15,02,30,18.60
2017,07,15,02,31,18.50
2017,07,15,02,32,18.50
2017,07,15,02,33,18.50
2017,07,15,02,34,18.50
2017,07,15,02,35,18.50
2017,07,15,02,36,18.50
2017,07,15,02,37,18.50
2017,07,15,02,38,18.50
2017,07,15,02,39,18.50
2017,07,15,02,40,18.50
2017,07,15,02,41,18.50
2017,07,15,02,42,18.50
2017,07,15,02,43,18.50
2017,07,15,02,44,18.40
2017,07,15,02,45,18.40
2017,07,15,02,46,18.40
2017,07,15,02,47,18.40
2017,07,15,02,48,18.30
2017,07,15,02,49,18.30
2017,07,15,02,50,18.30
2017,07,15,02,51,18.20
2017,07,15,02,52,18.20
2017,07,15,02,53,18.20
2017,07,15,02,54,18.20
2017,07,15,02,55,18.10
2017,07,15,02,56,18.10
2017,07,15,02,57,18.00
2017,07,15,02,58,17.90
2017,07,15,02,59,17.90
2017,07,15,03,00,17.90
2017,07,15,03,01,17.80
2017,07,15,03,02,17.80
2017,07,15,03,03,17.80
2017,07,15,03,04,17.80
2017,07,15,03,05,17.70
2017,07,15,03,06,17.70
2017,07,15,03,07,17.60
2017,07,15,03,08,17.60
2017,07,15,03,09,17.50
2017,07,15,03,10,17.40
2017,07,15,03,11,17.40
2017,07,15,03,12,17.30
2017,07,15,03,13,17.20
2017,07,15,03,14,17.10
2017,07,15,03,15,17.10
2017,07,15,03,16,17.10
2017,07,15,03,17,17.10
2017,07,15,03,18,17.00
2017,07,15,03,19,17.00
2017,07,15,03,20,16.90
2017,07,15,03,21,16.90
2017,07,15,03,22,16.80
2017,07,15,03,23,16.80
2017,07,15,03,24,16.70
2017,07,15,03,25,16.70
2017,07,15,03,26,16.60
2017,07,15,03,27,16.60
2017,07,15,03,28,16.60
2017,07,15,03,29,16.70
2017,07,15,03,30,16.80
2017,07,15,03,31,16.80
2017,07,15,03,32,16.80
2017,07,15,03,33,16.70
2017,07,15,03,34,16.60
2017,07,15,03,35,16.60
2017,07,15,03,36,16.50
2017,07,15,03,37,16.60
2017,07,15,03,38,16.70
2017,07,15,03,39,16.70
2017,07,15,03,40,16.80
2017,07,15,03,41,16.80
2017,07,15,03,42,16.70
2017,07,15,03,43,16.70
2017,07,15,03,44,16.60
2017,07,15,03,45,16.60
2017,07,15,03,46,16.50
2017,07,15,03,47,16.40
2017,07,15,03,48,16.40
2017,07,15,03,49,16.40
2017,07,15,03,50,16.30
2017,07,15,03,51,16.30
2017,07,15,03,52,16.20
2017,07,15,03,53,16.20
2017,07,15,03,54,16.10
2017,07,15,03,55,16.10
2017,07,15,03,56,16.10
2017,07,15,03,57,16.00
2017,07,15,03,58,16.00
2017,07,15,03,59,16.00
2017,07,15,04,00,16.00
2017,07,15,04,01,16.00
2017,07,15,04,02,15.90
2017,07,15,04,03,15.90
2017,07,15,04,04,15.90
2017,07,15,04,05,15.90
2017,07,15,04,06,15.80
2017,07,15,04,07,15.80
2017,07,15,04,08,15.80
2017,07,15,04,09,15.70
2017,07,15,04,10,15.70
2017,07,15,04,11,15.60
2017,07,15,04,12,15.60
2017,07,15,04,13,15.60
2017,07,15,04,14,15.50
2017,07,15,04,15,15.50
2017,07,15,04,16,15.40
2017,07,15,04,17,15.40
2017,07,15,04,18,15.40
2017,07,15,04,19,15.40
2017,07,15,04,20,15.30
2017,07,15,04,21,15.30
2017,07,15,04,22,15.30
2017,07,15,04,23,15.30
2017,07,15,04,24,15.30
2017,07,15,04,25,15.30
2017,07,15,04,26,15.30
2017,07,15,04,27,15.30
2017,07,15,04,28,15.30
2017,07,15,04,29,15.20
2017,07,15,04,30,15.20
2017,07,15,04,31,15.20
2017,07,15,04,32,15.20
2017,07,15,04,33,15.10
2017,07,15,04,34,15.10
2017,07,15,04,35,15.10
2017,07,15,04,36,15.10
2017,07,15,04,37,15.10
2017,07,15,04,38,15.10
2017,07,15,04,39,15.10
2017,07,15,04,40,15.10
2017,07,15,04,41,15.10
2017,07,15,04,42,15.10
2017,07,15,04,43,15.10
2017,07,15,04,44,15.10
2017,07,15,04,45,15.10
2017,07,15,04,46,15.10
2017,07,15,04,47,15.10
2017,07,15,04,48,15.10
2017,07,15,04,49,15.10
2017,07,15,04,50,15.10
2017,07,15,04,51,15.10
2017,07,15,04,52,15.10
2017,07,15,04,53,15.10
2017,07,15,04,54,15.00
2017,07,15,04,55,15.00
2017,07,15,04,56,15.00
2017,07,15,04,57,15.00
2017,07,15,04,58,15.00
2017,07,15,04,59,14.90
2017,07,15,05,00,14.90
2017,07,15,05,01,14.90
2017,07,15,05,02,14.90
2017,07,15,05,03,14.90
2017,07,15,05,04,14.80
2017,07,15,05,05,14.80
2017,07,15,05,06,14.80
2017,07,15,05,07,14.70
2017,07,15,05,08,14.70
2017,07,15,05,09,14.70
2017,07,15,05,10,14.60
2017,07,15,05,11,14.60
2017,07,15,05,12,14.50
2017,07,15,05,13,14.50
2017,07,15,05,14,14.40
2017,07,15,05,15,14.40
2017,07,15,05,16,14.30
2017,07,15,05,17,14.30
2017,07,15,05,18,14.20
2017,07,15,05,19,14.20
2017,07,15,05,20,14.10
2017,07,15,05,21,14.10
2017,07,15,05,22,14.00
2017,07,15,05,23,14.00
2017,07,15,05,24,13.90
2017,07,15,05,25,13.90
2017,07,15,05,26,13.90
2017,07,15,05,27,13.90
2017,07,15,05,28,13.90
2017,07,15,05,29,13.90
2017,07,15,05,30,13.90
2017,07,15,05,31,13.90
2017,07,15,05,32,14.00
2017,07,15,05,33,14.00
2017,07,15,05,34,14.00
2017,07,15,05,35,14.00
2017,07,15,05,36,14.10
2017,07,15,05,37,14.10
2017,07,15,05,38,14.10
2017,07,15,05,39,14.10
2017,07,15,05,40,14.20
2017,07,15,05,41,14.20
2017,07,15,05,42,14.20
2017,07,15,05,43,14.20
2017,07,15,05,44,14.20
2017,07,15,05,45,14.20
2017,07,15,05,46,14.20
2017,07,15,05,47,14.20
2017,07,15,05,48,14.20
2017,07,15,05,49,14.20
2017,07,15,05,50,14.20
2017,07,15,05,51,14.10
2017,07,15,05,52,14.10
2017,07,15,05,53,14.20
2017,07,15,05,54,14.20
2017,07,15,05,55,14.20
2017,07,15,05,56,14.20
2017,07,15,05,57,14.20
2017,07,15,05,58,14.10
2017,07,15,05,59,14.10
2017,07,15,06,00,14.10
2017,07,15,06,01,14.10
2017,07,15,06,02,14.10
2017,07,15,06,03,14.10
2017,07,15,06,04,14.10
2017,07,15,06,05,14.10
2017,07,15,06,06,14.10
2017,07,15,06,07,14.10
2017,07,15,06,08,14.10
2017,07,15,06,09,14.10
2017,07,15,06,10,14.10
2017,07,15,06,11,14.10
2017,07,15,06,12,14.10
2017,07,15,06,13,14.00
2017,07,15,06,14,14.00
2017,07,15,06,15,14.00
2017,07,15,06,16,14.00
2017,07,15,06,17,14.00
2017,07,15,06,18,14.00
2017,07,15,06,19,14.00
2017,07,15,06,20,14.10
2017,07,15,06,21,14.10
2017,07,15,06,22,14.10
2017,07,15,06,23,14.10
2017,07,15,06,24,14.10
2017,07,15,06,25,14.10
2017,07,15,06,26,14.10
2017,07,15,06,27,14.10
2017,07,15,06,28,14.10
2017,07,15,06,29,14.10
2017,07,15,06,30,14.10
2017,07,15,06,31,14.10
2017,07,15,06,32,14.10
2017,07,15,06,33,14.10
2017,07,15,06,34,14.20
2017,07,15,06,35,14.20
2017,07,15,06,36,14.20
2017,07,15,06,37,14.20
2017,07,15,06,38,14.20
2017,07,15,06,39,14.30
2017,07,15,06,40,14.30
2017,07,15,06,41,14.30
2017,07,15,06,42,14.30
2017,07,15,06,43,14.30
2017,07,15,06,44,14.40
2017,07,15,06,45,14.40
2017,07,15,06,46,14.40
2017,07,15,06,47,14.50
2017,07,15,06,48,14.50
2017,07,15,06,49,14.50
2017,07,15,06,50,14.50
2017,07,15,06,51,14.60
2017,07,15,06,52,14.60
2017,07,15,06,53,14.60
2017,07,15,06,54,14.60
2017,07,15,06,55,14.60
2017,07,15,06,56,14.60
2017,07,15,06,57,14.60
2017,07,15,06,58,14.70
2017,07,15,06,59,14.70
2017,07,15,07,00,14.70
2017,07,15,07,01,14.70
2017,07,15,07,02,14.80
2017,07,15,07,03,14.80
2017,07,15,07,04,14.80
2017,07,15,07,05,14.90
2017,07,15,07,06,14.90
2017,07,15,07,07,14.90
2017,07,15,07,08,14.90
2017,07,15,07,09,15.00
2017,07,15,07,10,15.00
2017,07,15,07,11,15.00
2017,07,15,07,12,15.00
2017,07,15,07,13,15.10
2017,07,15,07,14,15.10
2017,07,15,07,15,15.20
2017,07,15,07,16,15.20
2017,07,15,07,17,15.20
2017,07,15,07,18,15.30
2017,07,15,07,19,15.30
2017,07,15,07,20,15.30
2017,07,15,07,21,15.30
2017,07,15,07,22,15.40
2017,07,15,07,23,15.40
2017,07,15,07,24,15.40
2017,07,15,07,25,15.40
2017,07,15,07,26,15.50
2017,07,15,07,27,15.50
2017,07,15,07,28,15.50
2017,07,15,07,29,15.50
2017,07,15,07,30,15.50
2017,07,15,07,31,15.60
2017,07,15,07,32,15.60
2017,07,15,07,33,15.60
2017,07,15,07,34,15.70
2017,07,15,07,35,15.70
2017,07,15,07,36,15.70
2017,07,15,07,37,15.80
2017,07,15,07,38,15.80
2017,07,15,07,39,15.80
2017,07,15,07,40,15.80
2017,07,15,07,41,15.90
2017,07,15,07,42,15.90
2017,07,15,07,43,15.90
2017,07,15,07,44,16.00
2017,07,15,07,45,16.00
2017,07,15,07,46,16.10
2017,07,15,07,47,16.10
2017,07,15,07,48,16.20
2017,07,15,07,49,16.20
2017,07,15,07,50,16.20
2017,07,15,07,51,16.20
2017,07,15,07,52,16.30
2017,07,15,07,53,16.30
2017,07,15,07,54,16.30
2017,07,15,07,55,16.30
2017,07,15,07,56,16.40
2017,07,15,07,57,16.40
2017,07,15,07,58,16.40
2017,07,15,07,59,16.50
2017,07,15,08,00,16.50
2017,07,15,08,01,16.50
2017,07,15,08,02,16.60
2017,07,15,08,03,16.60
2017,07,15,08,04,16.60
2017,07,15,08,05,16.60
2017,07,15,08,06,16.70
2017,07,15,08,07,16.70
2017,07,15,08,08,16.80
2017,07,15,08,09,16.80
2017,07,15,08,10,16.90
2017,07,15,08,11,16.90
2017,07,15,08,12,17.00
2017,07,15,08,13,17.00
2017,07,15,08,14,17.10
2017,07,15,08,15,17.10
2017,07,15,08,16,17.10
2017,07,15,08,17,17.10
2017,07,15,08,18,17.20
2017,07,15,08,19,17.20
2017,07,15,08,20,17.20
2017,07,15,08,21,17.30
2017,07,15,08,22,17.30
2017,07,15,08,23,17.40
2017,07,15,08,24,17.40
2017,07,15,08,25,17.40
2017,07,15,08,26,17.40
2017,07,15,08,27,17.40
2017,07,15,08,28,17.40
2017,07,15,08,29,17.30
2017,07,15,08,30,17.30
2017,07,15,08,31,17.20
2017,07,15,08,32,17.10
2017,07,15,08,33,17.10
2017,07,15,08,34,17.10
2017,07,15,08,35,17.10
2017,07,15,08,36,17.10
2017,07,15,08,37,17.10
2017,07,15,08,38,17.10
2017,07,15,08,39,17.10
2017,07,15,08,40,17.10
2017,07,15,08,41,17.10
2017,07,15,08,42,17.10
2017,07,15,08,43,17.10
2017,07,15,08,44,17.20
2017,07,15,08,45,17.20
2017,07,15,08,46,17.20
2017,07,15,08,47,17.20
2017,07,15,08,48,17.20
2017,07,15,08,49,17.20
2017,07,15,08,50,17.20
2017,07,15,08,51,17.20
2017,07,15,08,52,17.20
2017,07,15,08,53,17.30
2017,07,15,08,54,17.30
2017,07,15,08,55,17.30
2017,07,15,08,56,17.30
2017,07,15,08,57,17.30
2017,07,15,08,58,17.20
2017,07,15,08,59,17.30
2017,07,15,09,00,17.30
2017,07,15,09,01,17.40
2017,07,15,09,02,17.40
2017,07,15,09,03,17.50
2017,07,15,09,04,17.60
2017,07,15,09,05,17.70
2017,07,15,09,06,17.70
2017,07,15,09,07,17.80
2017,07,15,09,08,17.80
2017,07,15,09,09,17.70
2017,07,15,09,10,17.70
2017,07,15,09,11,17.60
2017,07,15,09,12,17.50
2017,07,15,09,13,17.40
2017,07,15,09,14,17.40
2017,07,15,09,15,17.40
2017,07,15,09,16,17.40
2017,07,15,09,17,17.40
2017,07,15,09,18,17.40
2017,07,15,09,19,17.40
2017,07,15,09,20,17.40
2017,07,15,09,21,17.40
2017,07,15,09,22,17.50
2017,07,15,09,23,17.40
2017,07,15,09,24,17.50
2017,07,15,09,25,17.50
2017,07,15,09,26,17.50
2017,07,15,09,27,17.50
2017,07,15,09,28,17.50
2017,07,15,09,29,17.50
2017,07,15,09,30,17.50
2017,07,15,09,31,17.50
2017,07,15,09,32,17.60
2017,07,15,09,33,17.60
2017,07,15,09,34,17.70
2017,07,15,09,35,17.80
2017,07,15,09,36,17.90
2017,07,15,09,37,17.90
2017,07,15,09,38,17.90
2017,07,15,09,39,17.90
2017,07,15,09,40,17.90
2017,07,15,09,41,18.00
2017,07,15,09,42,18.00
2017,07,15,09,43,18.10
2017,07,15,09,44,18.10
2017,07,15,09,45,18.10
2017,07,15,09,46,18.20
2017,07,15,09,47,18.20
2017,07,15,09,48,18.20
2017,07,15,09,49,18.20
2017,07,15,09,50,18.30
2017,07,15,09,51,18.30
2017,07,15,09,52,18.40
2017,07,15,09,53,18.50
2017,07,15,09,54,18.60
2017,07,15,09,55,18.60
2017,07,15,09,56,18.70
2017,07,15,09,57,18.80
2017,07,15,09,58,18.90
2017,07,15,09,59,18.90
2017,07,15,10,00,18.90
2017,07,15,10,01,18.90
2017,07,15,10,02,18.90
2017,07,15,10,03,18.90
2017,07,15,10,04,18.90
2017,07,15,10,05,18.90
2017,07,15,10,06,18.90
2017,07,15,10,07,18.90
2017,07,15,10,08,18.90
2017,07,15,10,09,18.90
2017,07,15,10,10,18.90
2017,07,15,10,11,18.90
2017,07,15,10,12,18.90
2017,07,15,10,13,18.90
2017,07,15,10,14,19.00
2017,07,15,10,15,19.10
2017,07,15,10,16,19.10
2017,07,15,10,17,19.10
2017,07,15,10,18,19.10
2017,07,15,10,19,19.10
2017,07,15,10,20,19.10
2017,07,15,10,21,19.10
2017,07,15,10,22,19.10
2017,07,15,10,23,19.10
2017,07,15,10,24,19.20
2017,07,15,10,25,19.30
2017,07,15,10,26,19.30
2017,07,15,10,27,19.40
2017,07,15,10,28,19.40
2017,07,15,10,29,19.40
2017,07,15,10,30,19.50
2017,07,15,10,31,19.50
2017,07,15,10,32,19.50
2017,07,15,10,33,19.60
2017,07,15,10,34,19.70
2017,07,15,10,35,19.70
2017,07,15,10,36,19.80
2017,07,15,10,37,19.80
2017,07,15,10,38,19.90
2017,07,15,10,39,19.90
2017,07,15,10,40,19.90
2017,07,15,10,41,19.90
2017,07,15,10,42,19.90
2017,07,15,10,43,19.90
2017,07,15,10,44,20.00
2017,07,15,10,45,20.00
2017,07,15,10,46,20.00
2017,07,15,10,47,20.00
2017,07,15,10,48,20.00
2017,07,15,10,49,20.10
2017,07,15,10,50,20.20
2017,07,15,10,51,20.40
2017,07,15,10,52,20.60
2017,07,15,10,53,20.80
2017,07,15,10,54,20.90
2017,07,15,10,55,21.00
2017,07,15,10,56,21.10
2017,07,15,10,57,21.20
2017,07,15,10,58,21.20
2017,07,15,10,59,21.20
2017,07,15,11,00,21.10
2017,07,15,11,01,21.20
2017,07,15,11,02,21.20
2017,07,15,11,03,21.20
2017,07,15,11,04,21.20
2017,07,15,11,05,21.30
2017,07,15,11,06,21.20
2017,07,15,11,07,21.20
2017,07,15,11,08,21.20
2017,07,15,11,09,21.30
2017,07,15,11,10,21.20
2017,07,15,11,11,21.20
2017,07,15,11,12,21.20
2017,07,15,11,13,21.20
2017,07,15,11,14,21.20
2017,07,15,11,15,21.20
2017,07,15,11,16,21.20
2017,07,15,11,17,21.10
2017,07,15,11,18,21.10
2017,07,15,11,19,21.10
2017,07,15,11,20,21.00
2017,07,15,11,21,21.10
2017,07,15,11,22,21.10
2017,07,15,11,23,21.10
2017,07,15,11,24,21.10
2017,07,15,11,25,21.10
2017,07,15,11,26,21.10
2017,07,15,11,27,21.20
2017,07,15,11,28,21.20
2017,07,15,11,29,21.20
2017,07,15,11,30,21.20
2017,07,15,11,31,21.30
2017,07,15,11,32,21.40
2017,07,15,11,33,21.40
2017,07,15,11,34,21.50
2017,07,15,11,35,21.60
2017,07,15,11,36,21.50
2017,07,15,11,37,21.40
2017,07,15,11,38,21.40
2017,07,15,11,39,21.40
2017,07,15,11,40,21.40
2017,07,15,11,41,21.50
2017,07,15,11,42,21.60
2017,07,15,11,43,21.60
2017,07,15,11,44,21.60
2017,07,15,11,45,21.60
2017,07,15,11,46,21.70
2017,07,15,11,47,21.70
2017,07,15,11,48,21.70
2017,07,15,11,49,21.80
2017,07,15,11,50,21.90
2017,07,15,11,51,21.90
2017,07,15,11,52,21.70
2017,07,15,11,53,21.70
2017,07,15,11,54,21.70
2017,07,15,11,55,21.70
2017,07,15,11,56,21.80
2017,07,15,11,57,21.70
2017,07,15,11,58,21.70
2017,07,15,11,59,21.70
2017,07,15,12,00,21.80
2017,07,15,12,01,21.80
2017,07,15,12,02,21.90
2017,07,15,12,03,21.90
2017,07,15,12,04,21.90
2017,07,15,12,05,21.90
2017,07,15,12,06,21.90
2017,07,15,12,07,21.90
2017,07,15,12,08,21.90
2017,07,15,12,09,21.90
2017,07,15,12,10,21.90
2017,07,15,12,11,21.90
2017,07,15,12,12,21.90
2017,07,15,12,13,21.90
2017,07,15,12,14,21.80
2017,07,15,12,15,21.80
2017,07,15,12,16,21.70
2017,07,15,12,17,21.60
2017,07,15,12,18,21.60
2017,07,15,12,19,21.60
2017,07,15,12,20,21.60
2017,07,15,12,21,21.60
2017,07,15,12,22,21.70
2017,07,15,12,23,21.80
2017,07,15,12,24,21.90
2017,07,15,12,25,22.00
2017,07,15,12,26,21.90
2017,07,15,12,27,21.80
2017,07,15,12,28,21.80
2017,07,15,12,29,21.80
2017,07,15,12,30,21.70
2017,07,15,12,31,21.70
2017,07,15,12,32,21.80
2017,07,15,12,33,21.90
2017,07,15,12,34,22.10
2017,07,15,12,35,22.20
2017,07,15,12,36,22.20
2017,07,15,12,37,22.10
2017,07,15,12,38,22.10
2017,07,15,12,39,22.10
2017,07,15,12,40,22.10
2017,07,15,12,41,22.10
2017,07,15,12,42,22.10
2017,07,15,12,43,22.10
2017,07,15,12,44,22.30
2017,07,15,12,45,22.30
2017,07,15,12,46,22.30
2017,07,15,12,47,22.30
2017,07,15,12,48,22.20
2017,07,15,12,49,22.10
2017,07,15,12,50,22.10
2017,07,15,12,51,22.00
2017,07,15,12,52,22.00
2017,07,15,12,53,22.00
2017,07,15,12,54,21.90
2017,07,15,12,55,21.90
2017,07,15,12,56,22.00
2017,07,15,12,57,22.00
2017,07,15,12,58,22.00
2017,07,15,12,59,22.00
2017,07,15,13,00,22.00
2017,07,15,13,01,21.90
2017,07,15,13,02,21.90
2017,07,15,13,03,22.00
2017,07,15,13,04,22.10
2017,07,15,13,05,22.20
2017,07,15,13,06,22.20
2017,07,15,13,07,22.20
2017,07,15,13,08,22.20
2017,07,15,13,09,22.20
2017,07,15,13,10,22.00
2017,07,15,13,11,22.00
2017,07,15,13,12,21.90
2017,07,15,13,13,21.90
2017,07,15,13,14,21.90
2017,07,15,13,15,22.00
2017,07,15,13,16,22.00
2017,07,15,13,17,22.10
2017,07,15,13,18,22.20
2017,07,15,13,19,22.30
2017,07,15,13,20,22.30
2017,07,15,13,21,22.20
2017,07,15,13,22,22.20
2017,07,15,13,23,22.30
2017,07,15,13,24,22.30
2017,07,15,13,25,22.30
2017,07,15,13,26,22.40
2017,07,15,13,27,22.50
2017,07,15,13,28,22.50
2017,07,15,13,29,22.40
2017,07,15,13,30,22.30
2017,07,15,13,31,22.30
2017,07,15,13,32,22.20
2017,07,15,13,33,22.20
2017,07,15,13,34,22.30
2017,07,15,13,35,22.30
2017,07,15,13,36,22.40
2017,07,15,13,37,22.40
2017,07,15,13,38,22.60
2017,07,15,13,39,22.60
2017,07,15,13,40,22.60
2017,07,15,13,41,22.60
2017,07,15,13,42,22.60
2017,07,15,13,43,22.60
2017,07,15,13,44,22.60
2017,07,15,13,45,22.60
2017,07,15,13,46,22.50
2017,07,15,13,47,22.50
2017,07,15,13,48,22.60
2017,07,15,13,49,22.70
2017,07,15,13,50,22.70
2017,07,15,13,51,22.50
2017,07,15,13,52,22.40
2017,07,15,13,53,22.40
2017,07,15,13,54,22.40
2017,07,15,13,55,22.40
2017,07,15,13,56,22.40
2017,07,15,13,57,22.40
2017,07,15,13,58,22.40
2017,07,15,13,59,22.30
2017,07,15,14,00,22.20
2017,07,15,14,01,22.10
2017,07,15,14,02,22.00
2017,07,15,14,03,22.00
2017,07,15,14,04,22.00
2017,07,15,14,05,22.10
2017,07,15,14,06,22.20
2017,07,15,14,07,22.30
2017,07,15,14,08,22.30
2017,07,15,14,09,22.40
2017,07,15,14,10,22.40
2017,07,15,14,11,22.60
2017,07,15,14,12,22.70
2017,07,15,14,13,22.60
2017,07,15,14,14,22.50
2017,07,15,14,15,22.20
2017,07,15,14,16,22.20
2017,07,15,14,17,22.20
2017,07,15,14,18,22.10
2017,07,15,14,19,22.10
2017,07,15,14,20,22.10
2017,07,15,14,21,22.20
2017,07,15,14,22,22.30
2017,07,15,14,23,22.40
2017,07,15,14,24,22.40
2017,07,15,14,25,22.50
2017,07,15,14,26,22.50
2017,07,15,14,27,22.50
2017,07,15,14,28,22.40
2017,07,15,14,29,22.40
2017,07,15,14,30,22.40
2017,07,15,14,31,22.30
2017,07,15,14,32,22.30
2017,07,15,14,33,22.30
2017,07,15,14,34,22.20
2017,07,15,14,35,22.10
2017,07,15,14,36,21.90
2017,07,15,14,37,21.90
2017,07,15,14,38,21.90
2017,07,15,14,39,21.90
2017,07,15,14,40,21.90
2017,07,15,14,41,21.90
2017,07,15,14,42,22.00
2017,07,15,14,43,22.10
2017,07,15,14,44,22.00
2017,07,15,14,45,21.90
2017,07,15,14,46,21.80
2017,07,15,14,47,21.70
2017,07,15,14,48,21.80
2017,07,15,14,49,21.90
2017,07,15,14,50,22.00
2017,07,15,14,51,22.10
2017,07,15,14,52,22.30
2017,07,15,14,53,22.20
2017,07,15,14,54,22.20
2017,07,15,14,55,22.20
2017,07,15,14,56,22.20
2017,07,15,14,57,22.20
2017,07,15,14,58,22.40
2017,07,15,14,59,22.40
2017,07,15,15,00,22.40
2017,07,15,15,01,22.20
2017,07,15,15,02,22.20
2017,07,15,15,03,22.20
2017,07,15,15,04,22.00
2017,07,15,15,05,21.90
2017,07,15,15,06,21.80
2017,07,15,15,07,21.80
2017,07,15,15,08,21.70
2017,07,15,15,09,21.70
2017,07,15,15,10,21.60
2017,07,15,15,11,21.60
2017,07,15,15,12,21.70
2017,07,15,15,13,21.90
2017,07,15,15,14,22.00
2017,07,15,15,15,21.90
2017,07,15,15,16,21.90
2017,07,15,15,17,21.80
2017,07,15,15,18,21.80
2017,07,15,15,19,21.70
2017,07,15,15,20,21.60
2017,07,15,15,21,21.50
2017,07,15,15,22,21.50
2017,07,15,15,23,21.50
2017,07,15,15,24,21.40
2017,07,15,15,25,21.30
2017,07,15,15,26,21.30
2017,07,15,15,27,21.30
2017,07,15,15,28,21.30
2017,07,15,15,29,21.20
2017,07,15,15,30,21.20
2017,07,15,15,31,21.20
2017,07,15,15,32,21.20
2017,07,15,15,33,21.20
2017,07,15,15,34,21.30
2017,07,15,15,35,21.20
2017,07,15,15,36,21.10
2017,07,15,15,37,21.00
2017,07,15,15,38,20.90
2017,07,15,15,39,20.80
2017,07,15,15,40,20.80
2017,07,15,15,41,20.80
2017,07,15,15,42,20.70
2017,07,15,15,43,20.60
2017,07,15,15,44,20.60
2017,07,15,15,45,20.60
2017,07,15,15,46,20.70
2017,07,15,15,47,20.80
2017,07,15,15,48,20.90
2017,07,15,15,49,21.00
2017,07,15,15,50,21.00
2017,07,15,15,51,21.00
2017,07,15,15,52,20.80
2017,07,15,15,53,20.70
2017,07,15,15,54,20.70
2017,07,15,15,55,20.70
2017,07,15,15,56,20.70
2017,07,15,15,57,20.70
2017,07,15,15,58,20.80
2017,07,15,15,59,20.90
2017,07,15,16,00,21.00
2017,07,15,16,01,21.10
2017,07,15,16,02,21.10
2017,07,15,16,03,21.10
2017,07,15,16,04,21.10
2017,07,15,16,05,20.90
2017,07,15,16,06,20.80
2017,07,15,16,07,20.80
2017,07,15,16,08,20.70
2017,07,15,16,09,20.60
2017,07,15,16,10,20.50
2017,07,15,16,11,20.50
2017,07,15,16,12,20.50
2017,07,15,16,13,20.50
2017,07,15,16,14,20.40
2017,07,15,16,15,20.40
2017,07,15,16,16,20.40
2017,07,15,16,17,20.40
2017,07,15,16,18,20.50
2017,07,15,16,19,20.60
2017,07,15,16,20,20.70
2017,07,15,16,21,20.80
2017,07,15,16,22,20.80
2017,07,15,16,23,20.60
2017,07,15,16,24,20.50
2017,07,15,16,25,20.40
2017,07,15,16,26,20.40
2017,07,15,16,27,20.40
2017,07,15,16,28,20.30
2017,07,15,16,29,20.20
2017,07,15,16,30,20.10
2017,07,15,16,31,20.10
2017,07,15,16,32,20.20
2017,07,15,16,33,20.20
2017,07,15,16,34,20.20
2017,07,15,16,35,20.20
2017,07,15,16,36,20.20
2017,07,15,16,37,20.30
2017,07,15,16,38,20.40
2017,07,15,16,39,20.40
2017,07,15,16,40,20.40
2017,07,15,16,41,20.30
2017,07,15,16,42,20.40
2017,07,15,16,43,20.40
2017,07,15,16,44,20.40
2017,07,15,16,45,20.40
2017,07,15,16,46,20.40
2017,07,15,16,47,20.40
2017,07,15,16,48,20.30
2017,07,15,16,49,20.30
2017,07,15,16,50,20.40
2017,07,15,16,51,20.50
2017,07,15,16,52,20.60
2017,07,15,16,53,20.60
2017,07,15,16,54,20.60
2017,07,15,16,55,20.50
2017,07,15,16,56,20.40
2017,07,15,16,57,20.40
2017,07,15,16,58,20.30
2017,07,15,16,59,20.10
2017,07,15,17,00,20.00
2017,07,15,17,01,19.80
2017,07,15,17,02,19.90
2017,07,15,17,03,19.90
2017,07,15,17,04,20.00
2017,07,15,17,05,20.10
2017,07,15,17,06,20.20
2017,07,15,17,07,20.10
2017,07,15,17,08,20.10
2017,07,15,17,09,20.10
2017,07,15,17,10,20.10
2017,07,15,17,11,20.20
2017,07,15,17,12,20.20
2017,07,15,17,13,20.20
2017,07,15,17,14,20.20
2017,07,15,17,15,20.20
2017,07,15,17,16,20.20
2017,07,15,17,17,20.20
2017,07,15,17,18,20.20
2017,07,15,17,19,20.20